CAPE
7 3 2 4 5 4 6 5 2 0 0 0 0 0 0 0 0 0 0 0 0 0 0 0 0 0 0 0 0 0 0 0 0 0 0 0 0 0 0 0 0 0 0 0 0
2 4 6 5 3 3 2 3 3 2 1 0 0 0 0 0 0 0 0 0 0 0 0 0 0 0 0 0 0 0 0 0 0 0 0 0 0 0 0 1 2 0 0 0 0
5 5 2 5 3 4 2 1 1 2 1 1 0 0 0 0 0 0 0 0 0 0 0 0 0 0 0 0 0 0 0 0 0 0 0 0 0 0 0 0 2 1 0 0 0
5 3 5 8 8 5 4 1 1 0 0 1 1 1 0 0 0 0 0 0 0 0 0 0 0 0 0 0 0 0 0 0 0 0 0 0 0 1 13 2 1 1 0 1 0
0 0 0 0 1 1 0 1 0 0 0 1 1 2 0 0 0 0 0 0 0 0 0 0 0 0 0 0 0 0 0 0 0 0 0 2 0 4 0 1 0 6 1 1 0
6 2 0 0 0 0 0 0 0 0 0 0 1 2 0 0 0 0 0 0 0 0 0 0 0 0 0 0 0 0 0 0 0 0 0 5 0 0 0 0 0 2 0 0 9
0 0 0 0 0 0 0 0 0 0 0 1 1 1 0 0 0 0 0 0 0 0 0 0 0 0 0 0 0 0 0 0 0 0 0 0 0 0 0 0 0 0 4 8 10
0 0 0 0 0 0 0 0 0 0 0 0 2 1 0 0 0 0 0 0 0 0 0 0 0 0 0 0 0 0 0 0 0 0 0 5 0 0 0 0 0 0 5 11 5
4 1 0 0 0 0 0 0 0 0 0 0 0 0 0 0 0 0 0 0 0 0 0 0 0 0 0 0 0 0 0 0 0 0 0 5 0 0 0 0 0 0 0 0 0
5 2 1 0 0 0 0 0 0 0 0 0 0 1 0 0 0 0 0 0 0 0 0 0 0 0 0 0 0 0 0 0 0 0 0 0 0 0 3 9 3 5 0 0 0
4 1 2 1 0 0 0 0 0 0 2 6 1 0 0 0 0 0 0 0 0 0 0 0 0 0 0 0 0 0 0 0 0 0 0 0 0 0 2 9 2 0 0 0 2
1 2 3 0 0 0 0 0 0 0 0 0 0 0 0 0 0 0 0 0 0 0 0 0 0 0 0 0 0 0 0 0 0 0 0 0 0 1 1 0 0 0 0 0 0
0 0 0 1 0 0 0 2 0 0 1 0 0 0 0 0 0 0 0 0 0 0 0 0 0 0 0 0 0 0 0 0 0 0 0 0 0 0 0 1 2 0 0 0 0
0 0 0 0 0 0 30 0 5 20 0 0 0 0 0 0 0 0 0 0 0 0 0 0 0 0 0 0 0 0 0 0 0 0 0 0 0 0 0 0 0 0 0 0 0
0 0 0 0 0 88 59 61 46 5 3 4 2 6 8 1 9 2 0 0 0 0 0 0 0 0 0 0 0 0 0 0 0 0 0 0 0 0 0 0 0 0 2 1 0
0 0 0 0 1 45 40 17 28 4 2 0 0 7 2 4 0 10 17 0 0 0 0 0 0 0 0 0 0 0 0 0 0 0 0 0 0 0 0 0 0 0 0 0 0
0 0 0 0 0 3 0 12 8 1 0 0 0 0 0 0 0 0 1 4 11 36 7 0 0 0 0 0 0 0 0 0 0 0 0 0 0 0 0 0 0 0 0 0 1
0 0 0 1 0 2 2 0 0 13 2 0 0 0 0 0 0 0 18 11 3 2 1 1 2 0 0 0 0 0 0 0 0 0 0 0 0 0 0 0 0 0 0 0 5
0 0 0 0 0 0 6 6 35 39 11 24 9 18 40 37 23 20 12 9 21 37 9 1 1 0 0 0 0 0 0 0 0 0 0 0 0 0 0 0 0 0 0 2 330
0 0 14 0 0 12 18 66 46 18 23 25 12 12 12 8 0 23 34 38 96 15 1 0 0 0 0 0 0 0 0 0 0 0 0 0 0 0 3 0 0 0 0 0 423
0 7 0 0 31 69 28 39 31 5 61 31 63 21 26 35 44 16 14 29 108 36 3 2 2 0 0 0 0 0 0 0 0 0 0 0 0 96 11 0 0 0 0 3 530
0 14 0 0 1 49 12 0 0 12 58 34 34 24 26 58 25 48 81 67 39 6 0 26 8 3 0 5 0 0 0 0 0 0 0 0 0 0 0 0 0 0 0 214 490
0 0 1 0 11 1 0 4 16 6 66 124 31 23 32 29 18 44 11 22 49 0 48 6 9 15 10 4 25 26 0 0 0 5 0 0 0 1 0 0 0 0 0 444 443
3 3 12 7 16 12 13 4 5 15 70 16 0 24 1 8 5 7 0 7 0 25 1 5 2 0 0 27 3 23 48 0 0 1 0 0 1 0 0 0 27 23 347 518 448
14 3 6 1 4 9 10 5 4 22 13 9 1 11 17 9 13 17 7 1 0 0 11 15 0 7 24 0 7 7 1 13 0 0 0 0 15 0 8 104 334 560 628 556 449
1 0 0 2 10 15 4 1 10 3 5 0 9 9 7 10 28 6 20 11 12 6 2 8 1 2 0 0 0 0 0 2 5 0 0 0 16 0 0 12 279 399 457 448 392
9 7 6 0 4 2 3 0 2 10 1 5 9 6 9 10 27 18 9 1 8 3 7 8 5 1 3 0 3 0 0 2 17 11 8 5 31 0 0 0 29 271 423 449 352
CIN
-0 -0 -0 -0 -0 -0 -0 -0 -0 0 0 0 0 -0 0 0 0 0 0 0 0 0 0 0 0 0 0 0 0 0 0 0 0 0 0 0 0 0 0 0 0 0 0 0 0
-0 -0 -0 -0 -0 -0 -0 -0 -0 -0 -0 0 0 0 0 0 0 0 0 0 0 0 0 0 0 0 0 0 0 0 0 0 0 0 0 0 0 0 -1 -28 -50 0 0 0 0
-0 -0 -0 -0 -0 -0 0 0 -0 -0 -0 0 0 0 0 0 0 0 0 0 0 0 0 0 0 0 0 0 0 0 0 0 0 0 -4 -6 -4 0 0 0 -15 -27 0 -0 0
-0 -0 -0 -0 0 0 0 -0 0 -0 0 0 0 -0 0 0 0 0 0 0 0 0 0 0 0 0 0 0 0 0 0 0 0 0 0 0 0 -7 -10 -23 -33 -2 -3 -5 0
0 0 0 0 -0 0 0 0 0 0 0 0 0 -0 0 0 0 0 0 0 0 0 0 0 0 0 0 0 0 0 0 0 0 0 0 -41 0 -18 0 -8 0 -11 -3 -4 0
-0 -0 -0 0 0 0 0 0 0 0 0 0 -0 -0 -0 0 0 0 0 0 0 0 0 0 0 0 0 0 0 0 0 0 0 0 0 -6 0 0 0 -5 0 -8 0 0 -3
0 0 0 0 0 0 0 0 0 0 0 0 -0 -0 0 0 0 0 0 0 0 0 0 0 0 0 0 0 0 0 0 0 0 0 0 0 0 0 0 0 0 0 -2 -6 -12
0 0 0 0 0 0 0 0 0 0 0 0 0 -1 0 0 0 0 0 0 0 0 0 0 0 0 0 0 0 0 0 0 0 0 0 -3 0 0 0 0 0 0 -2 -3 -9
-0 -1 0 0 0 0 0 0 0 0 0 0 0 0 0 0 0 0 0 0 0 0 0 0 0 0 0 0 0 0 0 0 0 0 0 -1 0 0 0 0 0 0 0 0 0
0 -0 -0 0 0 0 0 0 0 0 0 0 0 -0 0 0 0 0 0 0 0 0 0 0 0 0 0 0 0 0 0 0 0 0 0 -1 0 0 -2 -4 -2 -5 -0 0 0
-0 -0 -0 -0 0 0 0 0 0 0 -10 -1 -2 0 0 0 0 0 0 0 0 0 0 0 0 0 0 0 0 0 0 0 0 0 0 0 0 0 -1 -4 -18 0 0 0 -5
0 0 0 0 0 0 0 0 -0 0 0 0 0 0 0 0 0 0 0 0 0 0 0 0 0 0 0 0 0 0 0 0 0 0 0 0 -1 -0 -9 0 0 0 0 0 0
0 0 -0 0 0 0 0 -2 0 0 -2 0 0 0 0 0 0 0 0 0 0 0 0 0 0 0 0 0 0 0 0 0 0 0 0 0 0 0 0 -0 -1 0 0 0 0
0 0 0 0 0 0 -8 0 -2 -35 0 0 0 0 0 0 0 0 0 0 0 0 0 0 0 0 0 0 0 0 0 0 0 0 0 0 0 0 0 0 0 0 0 0 0
0 0 0 0 0 -8 -17 -14 -16 -19 -0 -10 -25 -8 -2 -0 -5 -2 -1 0 0 0 0 0 0 0 0 0 0 0 0 0 0 0 0 0 0 0 0 0 0 0 -4 -1 0
0 0 0 0 -1 -14 -32 -70 -28 -4 -0 0 0 -23 -26 -21 0 -12 -3 0 -0 0 0 0 0 0 0 0 0 0 0 0 0 0 0 0 0 0 0 0 0 0 0 0 0
0 0 0 0 0 -1 0 -1 -0 -0 0 0 0 0 0 0 -1 -12 -19 -24 -5 -8 -5 0 0 0 0 0 0 0 0 0 0 0 0 0 0 0 0 0 0 0 0 0 -1
0 0 0 -5 0 -0 -6 0 -0 -8 -7 -5 -5 0 0 0 0 0 -7 -16 -8 -9 -8 -5 -2 0 0 0 0 0 0 0 0 0 0 0 0 0 0 0 0 0 0 0 -7
0 0 -2 -0 0 0 -2 -10 -3 -5 -6 -3 -4 -18 -10 -10 -23 -12 -4 -17 -5 -12 -29 -1 -7 0 0 0 0 0 0 0 0 0 0 0 0 0 0 0 0 0 0 -4 -36
0 0 -3 0 0 -55 -17 -9 -5 -8 -6 -5 -6 -26 -6 -6 -28 -44 -26 -36 -3 -16 -30 0 0 0 0 0 0 0 0 0 0 0 0 0 0 0 -5 0 0 0 0 0 -31
0 -6 0 -2 -44 -2 -4 -8 -5 -17 -4 -6 -3 -4 -6 -11 -8 -44 -46 -18 -16 -35 -9 -2 -3 0 -1 0 0 0 0 0 0 0 0 0 0 -17 -32 0 0 0 0 -24 -46
0 -2 0 0 -3 -2 -1 -0 -1 -13 -2 -5 -4 -5 -13 -3 -8 -26 -7 -39 -39 -36 0 -2 -42 -1 0 -15 0 0 0 0 0 0 0 0 0 0 0 0 0 0 0 -23 -55
0 -0 -4 -0 -0 -1 0 -4 -3 -4 -18 -7 -5 -7 -9 -13 -17 -13 -25 -63 -40 -13 -11 -11 -11 -2 -22 -10 -24 -24 -4 0 0 -0 0 0 0 -6 0 0 0 -17 0 -35 -71
-2 -1 -1 -3 -3 -1 -1 -4 -5 -15 -3 -17 -1 -7 -4 -6 -4 -12 -1 -3 -12 -7 -22 -2 -0 -2 -0 -36 0 -55 -16 0 0 0 0 0 -9 0 0 0 -54 -37 -36 -43 -62
-5 -3 -2 -1 -2 -2 -1 -2 -5 -4 -6 -2 -3 -3 -4 -1 -3 -3 -3 -3 0 0 -3 -1 0 -1 -2 0 -0 0 -31 -27 0 0 0 0 -7 0 -18 -14 -8 -15 -22 -47 -62
-1 -0 0 -1 -1 -1 -0 -2 -2 -3 -3 -0 -3 -5 -4 -3 -4 -1 -2 -3 -2 -2 -1 -1 -1 -0 -2 0 0 0 0 -43 -8 0 0 0 -20 -0 0 -25 -14 -20 -23 -50 -65
-1 -3 -1 -0 -1 -1 0 -0 -1 -1 -1 -1 -4 -5 -2 -4 -3 -1 -2 -1 -3 -3 -2 -0 0 -2 -2 0 -1 0 0 -129 -31 -9 -26 -42 -34 0 0 0 -1 -23 -27 -40 -59
Wind_Speed
30 31 31 32 32 32 32 32 33 35 36 37 38 38 38 39 40 38 39 31 25 25 22 21 20 22 21 24 24 24 31 36 31 30 33 35 30 23 21 15 22 20 20 20 21
32 32 32 33 34 34 34 34 35 35 36 37 38 39 39 40 43 48 42 37 31 21 23 24 26 26 30 29 27 26 34 34 34 40 43 39 38 34 21 20 21 31 18 13 13
32 33 33 34 35 35 36 36 37 36 36 37 38 39 39 40 41 40 31 34 28 25 28 27 30 24 29 25 24 27 39 31 37 33 34 41 42 38 27 25 18 17 28 29 31
33 34 34 35 35 36 37 37 38 38 38 38 38 38 39 33 37 23 22 24 27 27 28 32 32 32 31 31 26 38 36 39 42 40 44 47 45 45 40 35 33 42 35 27 28
35 35 36 36 37 38 38 38 38 39 39 39 38 37 35 35 38 23 21 20 25 27 35 34 36 34 42 36 32 36 37 36 42 45 43 40 50 49 48 42 41 42 35 37 32
36 36 37 38 39 39 39 40 39 39 39 39 38 36 37 48 33 34 30 32 30 28 32 34 38 36 43 41 40 39 36 43 43 45 46 47 52 46 48 48 45 44 32 35 39
37 38 38 39 40 40 41 42 42 41 41 38 36 35 41 46 38 37 36 33 33 33 36 35 33 37 40 47 44 46 55 56 55 50 55 42 61 44 42 42 44 42 37 40 38
37 38 39 40 41 42 43 44 44 42 40 37 32 31 41 33 31 38 39 41 38 39 40 40 39 44 45 49 50 52 56 62 55 47 36 38 69 42 33 39 40 41 41 39 29
38 39 39 40 41 42 43 44 45 42 36 29 28 27 40 28 29 31 32 40 38 36 37 37 40 43 41 43 47 51 52 54 40 30 44 35 55 48 30 33 33 35 40 39 38
40 41 42 42 43 44 45 46 40 35 29 23 26 33 33 34 27 19 23 26 30 36 38 35 35 44 43 41 48 37 35 38 51 43 38 39 43 43 33 30 31 29 29 31 33
41 42 43 45 45 46 43 37 33 33 25 34 33 31 40 32 26 28 30 30 28 34 41 35 38 42 41 34 33 34 39 48 48 42 40 40 41 50 42 34 34 31 31 24 27
41 42 42 44 44 42 36 34 36 34 46 40 45 49 48 44 51 45 35 38 34 39 35 39 45 41 37 33 35 37 46 49 52 49 43 44 44 41 40 33 27 22 22 28 34
43 43 40 41 39 31 30 34 33 33 46 53 48 45 42 37 42 41 35 38 42 42 39 42 48 39 42 45 43 38 39 40 50 45 52 45 49 47 44 23 29 29 22 25 32
37 38 36 36 29 31 28 33 31 32 41 33 21 24 23 25 35 31 32 36 41 46 42 46 46 49 44 49 40 50 33 36 42 39 46 36 51 41 28 33 29 22 25 23 23
35 36 31 28 27 26 32 33 30 25 31 17 15 13 18 20 20 22 19 26 40 41 39 55 48 45 51 48 40 49 39 41 42 43 45 43 38 47 31 29 19 21 23 23 16
31 28 28 28 15 9 6 6 7 19 23 23 21 23 21 25 28 22 20 21 25 35 41 54 46 49 53 50 53 48 43 46 46 44 48 29 28 46 20 18 26 28 23 16 15
25 22 20 19 23 11 4 6 9 20 22 23 28 27 28 29 28 25 28 31 33 36 45 48 51 53 49 50 46 48 42 45 45 46 41 27 30 25 24 16 28 33 28 15 9
18 15 14 14 17 16 10 11 22 29 29 33 32 34 33 31 32 32 30 34 33 37 41 45 51 47 47 52 47 46 45 42 43 37 39 34 38 42 18 16 23 18 8 14 7
18 14 15 21 17 13 15 17 27 32 34 33 31 30 28 26 27 30 28 33 29 24 36 37 46 45 47 49 47 47 52 45 46 39 43 40 35 24 18 21 13 9 4 5 5
21 16 15 19 18 12 16 13 19 30 31 28 28 22 31 32 24 26 25 24 25 21 21 34 47 44 45 43 54 53 40 49 46 47 44 36 33 31 12 15 13 3 6 6 6
18 17 16 17 14 13 13 15 18 8 4 24 26 27 27 29 31 28 24 23 21 27 27 31 34 41 41 48 48 46 52 49 47 44 43 41 37 17 13 11 9 7 5 3 8
19 20 17 17 18 14 13 21 8 6 3 22 23 25 21 29 28 28 32 29 14 24 30 28 26 42 45 39 42 49 46 47 49 42 43 38 36 16 13 16 11 17 6 10 9
19 20 17 14 22 18 13 12 5 10 23 22 26 27 26 28 27 24 27 14 12 23 23 22 26 34 36 39 42 45 52 48 49 38 40 42 39 15 15 14 14 19 4 14 9
19 23 21 19 19 17 10 8 6 5 6 7 26 24 28 31 30 28 29 22 27 27 23 25 29 36 36 30 28 35 44 51 48 47 44 42 25 16 14 12 7 16 11 9 10
20 21 23 22 21 16 11 4 6 11 12 3 22 27 31 32 31 29 30 28 24 27 23 23 33 37 40 46 36 35 43 49 51 40 45 39 32 18 10 4 2 3 5 6 9
23 24 22 21 19 20 14 6 6 8 7 6 12 29 29 28 31 32 33 32 30 25 25 24 28 31 39 41 36 39 47 44 53 48 44 37 15 4 4 9 8 9 9 6 8
24 19 20 22 22 22 18 13 4 6 5 3 12 22 22 26 28 29 30 34 35 31 27 24 24 23 29 30 28 34 45 43 48 49 44 34 25 12 11 12 6 8 10 7 7
Wind_Direction
318 317 313 311 310 310 306 303 299 293 292 292 291 289 289 289 284 278 270 274 281 275 287 287 280 273 269 271 270 272 275 274 277 284 288 286 300 315 319 325 307 333 325 329 328
318 316 313 311 308 306 305 304 301 298 296 294 292 293 292 290 282 271 270 271 272 273 273 271 272 272 265 269 268 263 268 271 278 278 275 283 286 296 306 316 310 311 319 322 334
321 318 315 312 309 307 304 301 300 299 298 296 294 295 293 291 281 278 281 267 264 264 267 269 271 270 268 269 265 265 266 274 276 281 285 283 284 289 299 300 300 315 314 314 314
322 320 318 315 312 308 305 303 299 297 296 296 296 294 290 287 274 281 287 276 266 264 263 265 267 266 263 265 267 267 268 272 275 278 279 278 285 286 290 296 299 300 305 310 310
324 321 318 316 314 312 310 306 301 298 295 294 294 294 293 276 270 283 292 287 271 265 261 261 259 261 263 266 268 265 271 273 275 275 280 287 279 284 287 293 295 297 299 304 308
327 325 322 319 315 311 308 306 304 302 298 294 292 293 284 272 280 277 279 276 273 274 263 259 260 261 267 266 263 269 272 273 275 275 278 282 283 287 287 291 294 295 294 299 300
333 331 327 322 318 314 311 307 303 301 299 296 294 290 279 272 278 276 280 277 273 270 265 266 266 261 266 266 269 272 269 269 268 274 277 288 280 283 290 291 293 292 294 298 300
339 335 331 328 323 318 313 308 304 303 300 297 296 290 280 287 281 274 273 271 270 267 265 264 269 269 268 269 268 267 268 268 268 276 255 282 269 287 291 294 294 296 294 297 301
341 339 336 332 328 323 317 311 303 302 305 303 296 286 285 291 281 278 276 270 268 267 265 265 264 264 268 265 264 262 265 268 272 257 279 275 280 287 282 285 287 295 296 294 297
343 339 336 332 327 322 318 309 306 306 305 303 291 285 282 284 285 283 287 283 271 265 264 258 260 257 259 256 254 258 257 263 273 274 278 276 281 287 287 283 288 287 298 300 296
347 344 341 336 332 326 322 321 317 307 302 286 288 279 281 290 292 279 288 281 276 267 258 253 252 247 233 238 253 260 262 268 272 275 278 280 283 283 289 291 289 293 300 294 294
356 352 350 345 340 332 328 319 313 308 293 290 283 278 277 280 273 273 279 270 270 264 261 253 246 227 257 250 254 256 264 266 269 269 277 282 283 283 284 289 288 281 287 297 298
358 354 354 350 345 344 333 320 328 318 294 289 279 277 278 275 272 273 271 267 262 262 259 253 249 257 255 255 256 254 258 266 268 276 268 282 282 282 284 280 292 291 285 297 299
5 1 359 359 357 347 336 334 331 327 296 301 287 286 285 284 273 278 273 263 261 259 260 260 259 255 252 253 249 257 255 267 272 276 275 281 281 285 290 290 289 279 292 292 294
7 5 8 13 12 5 347 338 328 328 287 317 309 337 304 280 290 290 279 268 261 261 260 256 257 254 251 249 252 256 262 266 269 271 276 275 283 248 296 295 287 291 293 296 281
9 13 18 29 34 37 318 251 209 310 287 320 330 316 305 296 289 295 292 281 276 266 263 259 260 256 255 256 253 257 258 262 265 269 268 257 276 246 279 281 296 298 296 283 287
10 17 24 31 32 49 55 153 352 327 288 318 311 313 303 293 289 285 282 277 273 269 263 262 257 254 255 255 251 248 251 254 257 258 262 276 275 257 241 274 298 298 304 288 269
4 13 29 39 36 54 64 95 24 326 328 317 315 308 298 296 288 285 283 277 280 273 268 266 257 249 247 247 249 242 244 245 248 259 266 273 272 247 266 255 295 297 292 319 212
5 22 37 36 46 66 59 49 16 357 338 320 311 308 306 304 305 290 287 280 285 299 264 272 266 260 249 249 246 245 239 246 254 262 266 269 281 259 270 295 293 295 254 354 76
20 27 37 39 42 59 44 42 22 358 336 315 311 338 302 295 312 295 296 295 288 294 296 278 267 264 259 244 246 243 245 238 244 249 259 266 276 290 293 288 299 247 244 271 134
27 32 48 41 44 39 32 25 21 324 289 289 291 293 289 301 283 296 294 290 296 294 293 281 265 261 262 244 236 239 237 238 245 246 252 259 266 312 308 336 329 184 228 248 152
31 28 50 35 31 33 23 10 358 272 241 275 279 282 274 295 299 293 288 295 313 300 292 285 272 257 255 253 241 241 238 238 235 240 245 255 263 298 292 302 308 297 163 151 142
33 27 46 43 22 15 15 19 5 41 7 274 283 283 292 299 310 309 287 317 326 298 294 283 265 261 257 248 247 243 235 238 238 243 241 245 254 282 299 304 294 273 195 140 138
34 28 25 25 29 19 10 7 24 17 39 286 273 274 323 306 289 294 271 296 303 279 293 277 263 251 249 237 254 245 239 235 230 231 235 239 254 276 288 299 285 267 141 136 138
38 32 22 14 13 11 18 321 321 19 33 301 278 284 304 298 291 279 278 282 273 269 280 274 260 252 244 236 249 250 242 232 228 227 229 236 244 272 273 294 303 95 164 148 142
28 26 27 15 23 20 28 17 21 22 289 21 271 288 284 277 280 272 271 272 270 261 255 265 256 241 233 230 242 252 240 233 223 224 225 236 221 278 283 309 281 250 232 201 148
28 32 29 24 25 27 34 31 305 299 59 326 271 272 268 273 274 264 253 251 252 248 245 259 243 244 224 227 245 238 220 225 221 220 219 227 242 200 209 273 276 238 233 213 163